Location: Ciserano
(45.5833°N, 9.6000°E)
Time: 18:31:55
(UTC+00:00)

Cosmos 2154 Rocket - Pass Details

Date: 29 November 2020
Orbit: 966 x 997 km, 82.9° (Epoch: 23 January)

Event Time Altitude Azimuth Distance (km) Brightness Sun altitude
Rises 05:07:12 0° 186° (S) 3,647 7.1 -15.7°
Reaches altitude 10° 05:09:41 10° 186° (S) 2,707 6.4 -15.3°
Maximum altitude 05:15:54 89° 96° (E) 983 4.0 -14.2°
Drops below altitude 10° 05:22:13 10° 9° (N) 2,747 6.3 -13.2°
Sets 05:24:45 0° 9° (N) 3,703 6.9 -12.7°
